QPF
0.00 0.01 0.01 0.01 0.01 0.01 0.01 0.01 0.00 0.00 0.00 0.00 0.00 0.00 0.00 0.00 0.00 0.00 0.00 0.00 0.00 0.00 0.01 0.01 0.01 0.01 0.01 0.01 0.01 0.00 0.00 0.00 0.00 0.00 0.00 0.00 0.00 0.00 0.00 0.01 0.01 0.01 0.00
0.00 0.00 0.00 0.00 0.00 0.00 0.00 0.00 0.00 0.00 0.00 0.00 0.00 0.00 0.00 0.00 0.00 0.00 0.00 0.00 0.00 0.00 0.00 0.01 0.01 0.01 0.01 0.01 0.01 0.01 0.01 0.01 0.01 0.01 0.01 0.01 0.01 0.01 0.01 0.01 0.01 0.01 0.01
0.00 0.00 0.00 0.00 0.00 0.00 0.00 0.00 0.00 0.00 0.00 0.00 0.00 0.00 0.00 0.00 0.00 0.01 0.01 0.01 0.01 0.00 0.01 0.01 0.01 0.01 0.01 0.01 0.02 0.02 0.02 0.02 0.01 0.02 0.01 0.01 0.01 0.01 0.02 0.02 0.02 0.02 0.02
0.00 0.00 0.01 0.00 0.00 0.00 0.00 0.00 0.00 0.00 0.00 0.00 0.00 0.00 0.01 0.01 0.01 0.01 0.01 0.01 0.01 0.01 0.01 0.01 0.01 0.01 0.01 0.01 0.01 0.01 0.02 0.02 0.02 0.02 0.02 0.02 0.02 0.02 0.02 0.02 0.02 0.03 0.02
0.01 0.00 0.01 0.01 0.01 0.01 0.00 0.00 0.00 0.00 0.00 0.00 0.00 0.00 0.00 0.00 0.00 0.00 0.00 0.01 0.01 0.00 0.01 0.01 0.01 0.01 0.01 0.01 0.01 0.01 0.01 0.02 0.02 0.03 0.02 0.02 0.02 0.02 0.02 0.02 0.02 0.02 0.03
0.01 0.01 0.01 0.02 0.01 0.01 0.00 0.00 0.00 0.00 0.00 0.00 0.00 0.00 0.00 0.00 0.00 0.00 0.00 0.00 0.00 0.00 0.00 0.00 0.00 0.00 0.01 0.01 0.01 0.01 0.01 0.02 0.02 0.02 0.03 0.03 0.04 0.03 0.03 0.02 0.02 0.02 0.02
0.04 0.03 0.03 0.02 0.01 0.01 0.01 0.00 0.00 0.00 0.00 0.00 0.00 0.00 0.00 0.00 0.00 0.00 0.00 0.00 0.00 0.00 0.00 0.00 0.00 0.00 0.00 0.00 0.00 0.00 0.00 0.01 0.01 0.01 0.01 0.02 0.03 0.03 0.03 0.03 0.03 0.03 0.02
0.08 0.05 0.04 0.03 0.02 0.01 0.01 0.00 0.00 0.00 0.00 0.00 0.00 0.00 0.00 0.00 0.00 0.00 0.00 0.00 0.00 0.00 0.00 0.00 0.00 0.00 0.00 0.00 0.00 0.00 0.00 0.00 0.00 0.00 0.00 0.01 0.01 0.01 0.02 0.02 0.03 0.03 0.03
0.09 0.07 0.04 0.03 0.02 0.01 0.01 0.01 0.00 0.00 0.00 0.00 0.00 0.00 0.00 0.00 0.00 0.00 0.00 0.00 0.00 0.00 0.00 0.00 0.00 0.00 0.00 0.00 0.00 0.00 0.00 0.00 0.00 0.00 0.00 0.01 0.01 0.00 0.00 0.01 0.01 0.01 0.02
0.09 0.06 0.04 0.03 0.02 0.01 0.01 0.00 0.00 0.00 0.00 0.00 0.00 0.00 0.00 0.00 0.00 0.00 0.00 0.00 0.00 0.00 0.00 0.00 0.00 0.00 0.00 0.00 0.00 0.00 0.00 0.00 0.00 0.00 0.00 0.00 0.00 0.00 0.00 0.01 0.01 0.01 0.01
0.08 0.05 0.04 0.03 0.02 0.01 0.01 0.00 0.00 0.00 0.00 0.00 0.00 0.00 0.00 0.00 0.00 0.00 0.00 0.00 0.00 0.00 0.00 0.00 0.00 0.00 0.00 0.00 0.00 0.00 0.00 0.00 0.00 0.00 0.00 0.00 0.00 0.00 0.00 0.01 0.01 0.01 0.02
0.05 0.04 0.03 0.02 0.01 0.01 0.00 0.00 0.00 0.00 0.00 0.00 0.00 0.00 0.00 0.00 0.00 0.00 0.00 0.00 0.00 0.00 0.00 0.00 0.00 0.00 0.00 0.00 0.00 0.00 0.00 0.00 0.00 0.00 0.00 0.00 0.00 0.00 0.01 0.01 0.01 0.02 0.02
0.04 0.03 0.03 0.02 0.01 0.01 0.00 0.00 0.00 0.00 0.00 0.00 0.00 0.00 0.00 0.00 0.00 0.00 0.00 0.00 0.00 0.00 0.00 0.00 0.00 0.00 0.00 0.00 0.00 0.00 0.00 0.00 0.00 0.01 0.01 0.01 0.01 0.01 0.01 0.01 0.01 0.02 0.02
0.02 0.02 0.01 0.01 0.01 0.00 0.00 0.00 0.00 0.00 0.00 0.00 0.00 0.00 0.00 0.00 0.00 0.00 0.00 0.00 0.00 0.00 0.00 0.00 0.00 0.00 0.00 0.00 0.00 0.00 0.00 0.00 0.01 0.01 0.01 0.01 0.01 0.01 0.01 0.01 0.01 0.01 0.01
0.01 0.01 0.01 0.00 0.00 0.00 0.00 0.00 0.00 0.00 0.00 0.00 0.00 0.00 0.00 0.00 0.00 0.00 0.00 0.00 0.00 0.00 0.00 0.00 0.00 0.00 0.00 0.00 0.00 0.00 0.00 0.00 0.01 0.01 0.01 0.01 0.01 0.01 0.01 0.01 0.01 0.01 0.01
0.01 0.01 0.00 0.00 0.00 0.00 0.00 0.00 0.00 0.00 0.00 0.00 0.00 0.00 0.00 0.00 0.00 0.00 0.00 0.00 0.00 0.01 0.00 0.00 0.00 0.00 0.00 0.00 0.00 0.00 0.00 0.00 0.00 0.00 0.01 0.01 0.01 0.01 0.01 0.02 0.02 0.02 0.01
0.01 0.01 0.00 0.00 0.00 0.00 0.00 0.00 0.00 0.00 0.00 0.00 0.00 0.00 0.00 0.00 0.00 0.00 0.00 0.00 0.00 0.00 0.01 0.00 0.00 0.00 0.00 0.00 0.00 0.00 0.00 0.00 0.00 0.00 0.01 0.02 0.02 0.02 0.02 0.02 0.03 0.03 0.02
0.01 0.01 0.01 0.01 0.01 0.01 0.00 0.00 0.00 0.00 0.00 0.00 0.00 0.00 0.00 0.00 0.00 0.00 0.00 0.00 0.00 0.00 0.01 0.00 0.00 0.00 0.00 0.00 0.00 0.00 0.00 0.00 0.00 0.01 0.01 0.02 0.02 0.02 0.02 0.02 0.02 0.02 0.02
0.02 0.02 0.02 0.01 0.01 0.01 0.00 0.00 0.00 0.00 0.00 0.00 0.00 0.00 0.00 0.00 0.00 0.00 0.00 0.00 0.00 0.00 0.01 0.01 0.00 0.00 0.00 0.00 0.00 0.00 0.00 0.01 0.01 0.01 0.01 0.02 0.03 0.03 0.03 0.02 0.02 0.01 0.01
0.03 0.03 0.02 0.01 0.01 0.01 0.01 0.00 0.00 0.00 0.00 0.00 0.00 0.00 0.00 0.00 0.00 0.00 0.00 0.00 0.00 0.00 0.01 0.01 0.01 0.00 0.00 0.00 0.01 0.01 0.01 0.01 0.01 0.01 0.01 0.02 0.02 0.02 0.02 0.02 0.02 0.01 0.01
0.04 0.03 0.03 0.02 0.01 0.01 0.00 0.00 0.00 0.00 0.00 0.00 0.00 0.00 0.00 0.00 0.01 0.01 0.01 0.01 0.01 0.01 0.01 0.01 0.01 0.01 0.01 0.01 0.01 0.01 0.02 0.01 0.00 0.01 0.01 0.01 0.01 0.01 0.01 0.02 0.02 0.03 0.02
0.04 0.02 0.01 0.01 0.00 0.00 0.00 0.00 0.00 0.00 0.00 0.00 0.00 0.00 0.00 0.00 0.01 0.01 0.01 0.02 0.03 0.03 0.03 0.03 0.03 0.03 0.02 0.02 0.02 0.02 0.03 0.03 0.02 0.01 0.01 0.01 0.01 0.01 0.01 0.01 0.02 0.02 0.02
0.02 0.01 0.01 0.00 0.00 0.00 0.00 0.00 0.00 0.00 0.00 0.00 0.00 0.00 0.00 0.00 0.01 0.01 0.01 0.01 0.01 0.02 0.03 0.04 0.04 0.03 0.03 0.03 0.04 0.04 0.04 0.04 0.03 0.02 0.02 0.02 0.01 0.01 0.01 0.01 0.02 0.02 0.02
0.01 0.00 0.00 0.00 0.00 0.00 0.00 0.00 0.00 0.00 0.00 0.00 0.00 0.00 0.00 0.00 0.00 0.01 0.01 0.01 0.01 0.01 0.02 0.02 0.02 0.02 0.02 0.03 0.04 0.05 0.05 0.04 0.03 0.03 0.04 0.04 0.02 0.02 0.02 0.02 0.03 0.02 0.02
0.01 0.00 0.00 0.00 0.00 0.00 0.00 0.00 0.00 0.00 0.00 0.00 0.00 0.00 0.00 0.00 0.01 0.01 0.01 0.01 0.01 0.01 0.01 0.02 0.02 0.02 0.03 0.05 0.05 0.05 0.05 0.06 0.05 0.04 0.05 0.05 0.03 0.02 0.02 0.02 0.02 0.03 0.02
0.00 0.00 0.00 0.00 0.00 0.00 0.00 0.00 0.00 0.00 0.00 0.00 0.00 0.00 0.01 0.01 0.01 0.01 0.01 0.02 0.01 0.01 0.01 0.01 0.02 0.02 0.03 0.04 0.05 0.05 0.06 0.06 0.06 0.06 0.05 0.04 0.04 0.03 0.03 0.02 0.02 0.02 0.02
MSLP
1015.99 1016.11 1016.16 1016.17 1016.19 1016.24 1016.33 1016.47 1016.64 1016.83 1017.01 1017.17 1017.29 1017.39 1017.47 1017.54 1017.62 1017.71 1017.82 1017.93 1018.05 1018.16 1018.27 1018.37 1018.47 1018.58 1018.69 1018.82 1018.96 1019.09 1019.21 1019.31 1019.39 1019.43 1019.45 1019.45 1019.44 1019.42 1019.39 1019.37 1019.34 1019.33 1019.32
1015.67 1015.82 1015.91 1015.99 1016.06 1016.16 1016.28 1016.44 1016.63 1016.83 1017.02 1017.20 1017.34 1017.47 1017.57 1017.66 1017.73 1017.81 1017.88 1017.94 1018.01 1018.08 1018.16 1018.25 1018.35 1018.46 1018.60 1018.74 1018.88 1019.02 1019.14 1019.23 1019.31 1019.36 1019.40 1019.43 1019.45 1019.46 1019.46 1019.44 1019.40 1019.34 1019.29
1015.44 1015.63 1015.80 1015.94 1016.09 1016.25 1016.43 1016.62 1016.81 1017.01 1017.21 1017.38 1017.54 1017.67 1017.78 1017.87 1017.93 1017.97 1018.00 1018.00 1018.01 1018.02 1018.05 1018.10 1018.18 1018.29 1018.43 1018.58 1018.72 1018.85 1018.96 1019.05 1019.12 1019.17 1019.23 1019.28 1019.33 1019.38 1019.41 1019.42 1019.39 1019.33 1019.25
1015.37 1015.61 1015.85 1016.09 1016.32 1016.55 1016.77 1016.98 1017.19 1017.37 1017.55 1017.71 1017.86 1017.99 1018.10 1018.18 1018.22 1018.23 1018.20 1018.14 1018.08 1018.02 1017.98 1017.99 1018.04 1018.13 1018.25 1018.39 1018.52 1018.64 1018.73 1018.79 1018.84 1018.88 1018.93 1019.00 1019.08 1019.16 1019.23 1019.27 1019.28 1019.24 1019.16
1015.49 1015.79 1016.10 1016.41 1016.72 1017.01 1017.27 1017.50 1017.69 1017.86 1018.01 1018.14 1018.27 1018.39 1018.49 1018.56 1018.59 1018.57 1018.50 1018.39 1018.25 1018.13 1018.02 1017.97 1017.98 1018.04 1018.13 1018.25 1018.36 1018.45 1018.50 1018.52 1018.53 1018.53 1018.56 1018.61 1018.69 1018.80 1018.90 1018.99 1019.04 1019.03 1018.98
1015.80 1016.14 1016.51 1016.89 1017.25 1017.58 1017.86 1018.09 1018.26 1018.39 1018.50 1018.60 1018.71 1018.82 1018.92 1019.00 1019.03 1019.00 1018.90 1018.75 1018.57 1018.38 1018.21 1018.10 1018.06 1018.07 1018.13 1018.22 1018.29 1018.33 1018.33 1018.30 1018.24 1018.19 1018.16 1018.17 1018.23 1018.33 1018.45 1018.58 1018.67 1018.72 1018.71
1016.24 1016.61 1017.01 1017.43 1017.82 1018.17 1018.45 1018.66 1018.80 1018.89 1018.96 1019.03 1019.13 1019.24 1019.36 1019.46 1019.52 1019.50 1019.40 1019.23 1019.01 1018.77 1018.56 1018.39 1018.29 1018.26 1018.27 1018.31 1018.34 1018.33 1018.27 1018.16 1018.03 1017.89 1017.78 1017.73 1017.74 1017.81 1017.93 1018.07 1018.20 1018.29 1018.33
1016.73 1017.10 1017.52 1017.94 1018.34 1018.69 1018.96 1019.13 1019.24 1019.29 1019.33 1019.39 1019.49 1019.62 1019.77 1019.91 1020.01 1020.02 1019.94 1019.77 1019.53 1019.26 1019.00 1018.79 1018.64 1018.55 1018.52 1018.51 1018.49 1018.42 1018.29 1018.11 1017.89 1017.66 1017.46 1017.32 1017.26 1017.29 1017.38 1017.51 1017.66 1017.78 1017.86
1017.15 1017.53 1017.93 1018.35 1018.73 1019.06 1019.31 1019.46 1019.53 1019.56 1019.59 1019.65 1019.76 1019.93 1020.12 1020.31 1020.46 1020.51 1020.46 1020.30 1020.06 1019.77 1019.47 1019.21 1019.01 1018.88 1018.80 1018.74 1018.67 1018.55 1018.36 1018.11 1017.81 1017.49 1017.20 1016.97 1016.83 1016.78 1016.82 1016.93 1017.07 1017.21 1017.31
1017.45 1017.80 1018.19 1018.59 1018.96 1019.26 1019.48 1019.61 1019.67 1019.69 1019.73 1019.80 1019.94 1020.14 1020.38 1020.62 1020.81 1020.90 1020.87 1020.72 1020.48 1020.17 1019.85 1019.55 1019.31 1019.13 1019.01 1018.91 1018.79 1018.63 1018.39 1018.08 1017.71 1017.32 1016.95 1016.64 1016.42 1016.30 1016.29 1016.36 1016.48 1016.61 1016.72
1017.58 1017.92 1018.29 1018.67 1019.01 1019.30 1019.51 1019.63 1019.69 1019.72 1019.76 1019.86 1020.02 1020.25 1020.53 1020.79 1021.00 1021.12 1021.10 1020.96 1020.70 1020.38 1020.03 1019.71 1019.43 1019.22 1019.06 1018.93 1018.77 1018.57 1018.30 1017.95 1017.54 1017.10 1016.67 1016.30 1016.02 1015.84 1015.77 1015.79 1015.87 1015.98 1016.08
1017.57 1017.90 1018.26 1018.62 1018.95 1019.23 1019.43 1019.56 1019.63 1019.68 1019.74 1019.86 1020.04 1020.28 1020.55 1020.82 1021.03 1021.13 1021.11 1020.95 1020.69 1020.35 1019.98 1019.64 1019.34 1019.10 1018.91 1018.74 1018.56 1018.34 1018.05 1017.68 1017.24 1016.78 1016.32 1015.92 1015.59 1015.36 1015.24 1015.21 1015.25 1015.33 1015.41
1017.49 1017.81 1018.16 1018.51 1018.84 1019.12 1019.33 1019.47 1019.56 1019.63 1019.71 1019.83 1020.01 1020.23 1020.48 1020.71 1020.88 1020.95 1020.89 1020.71 1020.43 1020.07 1019.70 1019.34 1019.03 1018.77 1018.56 1018.37 1018.17 1017.93 1017.62 1017.24 1016.81 1016.34 1015.87 1015.45 1015.11 1014.85 1014.69 1014.62 1014.62 1014.67 1014.72
1017.42 1017.74 1018.08 1018.43 1018.76 1019.05 1019.27 1019.43 1019.53 1019.62 1019.70 1019.81 1019.96 1020.14 1020.33 1020.49 1020.60 1020.60 1020.49 1020.28 1019.97 1019.61 1019.23 1018.88 1018.56 1018.30 1018.07 1017.86 1017.64 1017.38 1017.06 1016.67 1016.24 1015.78 1015.32 1014.90 1014.55 1014.28 1014.10 1014.00 1013.96 1013.97 1014.00
1017.45 1017.77 1018.11 1018.45 1018.78 1019.07 1019.31 1019.48 1019.60 1019.68 1019.75 1019.83 1019.93 1020.04 1020.14 1020.21 1020.22 1020.15 1019.98 1019.73 1019.41 1019.04 1018.68 1018.33 1018.03 1017.76 1017.53 1017.30 1017.05 1016.76 1016.42 1016.02 1015.58 1015.12 1014.67 1014.27 1013.92 1013.65 1013.45 1013.33 1013.26 1013.24 1013.25
1017.64 1017.95 1018.28 1018.62 1018.94 1019.23 1019.47 1019.64 1019.76 1019.83 1019.87 1019.91 1019.93 1019.95 1019.95 1019.92 1019.83 1019.67 1019.44 1019.15 1018.81 1018.46 1018.12 1017.79 1017.50 1017.24 1017.00 1016.74 1016.46 1016.13 1015.75 1015.33 1014.87 1014.41 1013.96 1013.56 1013.21 1012.94 1012.74 1012.60 1012.51 1012.46 1012.45
1018.02 1018.31 1018.62 1018.94 1019.25 1019.52 1019.74 1019.90 1020.01 1020.05 1020.06 1020.03 1019.98 1019.90 1019.79 1019.64 1019.45 1019.21 1018.93 1018.61 1018.27 1017.93 1017.61 1017.32 1017.04 1016.78 1016.52 1016.24 1015.91 1015.53 1015.10 1014.63 1014.14 1013.65 1013.20 1012.79 1012.45 1012.17 1011.96 1011.80 1011.70 1011.64 1011.62
1018.54 1018.81 1019.09 1019.38 1019.66 1019.90 1020.10 1020.24 1020.31 1020.32 1020.27 1020.18 1020.04 1019.87 1019.66 1019.41 1019.13 1018.81 1018.47 1018.13 1017.79 1017.47 1017.17 1016.90 1016.64 1016.38 1016.09 1015.77 1015.39 1014.95 1014.46 1013.94 1013.40 1012.89 1012.41 1011.99 1011.64 1011.35 1011.13 1010.96 1010.84 1010.77 1010.74
1019.16 1019.39 1019.63 1019.88 1020.12 1020.33 1020.49 1020.58 1020.61 1020.58 1020.48 1020.32 1020.10 1019.84 1019.54 1019.20 1018.84 1018.46 1018.08 1017.71 1017.36 1017.05 1016.76 1016.50 1016.25 1015.97 1015.66 1015.29 1014.86 1014.36 1013.81 1013.24 1012.66 1012.11 1011.61 1011.17 1010.80 1010.50 1010.26 1010.08 1009.95 1009.87 1009.84
1019.80 1019.99 1020.19 1020.39 1020.58 1020.74 1020.85 1020.89 1020.88 1020.79 1020.63 1020.40 1020.12 1019.78 1019.41 1018.99 1018.56 1018.12 1017.70 1017.30 1016.94 1016.62 1016.33 1016.07 1015.80 1015.51 1015.17 1014.76 1014.28 1013.74 1013.15 1012.53 1011.92 1011.34 1010.81 1010.35 1009.97 1009.65 1009.40 1009.20 1009.06 1008.97 1008.94
1020.40 1020.54 1020.70 1020.85 1020.98 1021.08 1021.13 1021.13 1021.05 1020.91 1020.69 1020.41 1020.06 1019.67 1019.22 1018.75 1018.26 1017.77 1017.30 1016.87 1016.48 1016.14 1015.84 1015.55 1015.26 1014.95 1014.58 1014.14 1013.64 1013.07 1012.45 1011.82 1011.19 1010.60 1010.06 1009.59 1009.19 1008.86 1008.58 1008.37 1008.20 1008.10 1008.07
1020.91 1021.01 1021.12 1021.23 1021.30 1021.34 1021.33 1021.25 1021.12 1020.91 1020.64 1020.31 1019.91 1019.46 1018.97 1018.45 1017.91 1017.38 1016.87 1016.40 1015.97 1015.59 1015.25 1014.94 1014.63 1014.29 1013.90 1013.46 1012.95 1012.38 1011.77 1011.14 1010.53 1009.94 1009.41 1008.93 1008.52 1008.16 1007.86 1007.62 1007.43 1007.30 1007.25
1021.32 1021.39 1021.46 1021.51 1021.53 1021.50 1021.41 1021.27 1021.07 1020.81 1020.48 1020.10 1019.66 1019.18 1018.65 1018.10 1017.53 1016.96 1016.41 1015.89 1015.43 1015.01 1014.63 1014.28 1013.94 1013.59 1013.20 1012.76 1012.27 1011.73 1011.16 1010.57 1009.98 1009.42 1008.90 1008.42 1007.99 1007.61 1007.28 1006.99 1006.76 1006.59 1006.52
1021.65 1021.70 1021.73 1021.73 1021.68 1021.58 1021.42 1021.21 1020.93 1020.61 1020.23 1019.81 1019.34 1018.83 1018.29 1017.71 1017.12 1016.53 1015.95 1015.41 1014.90 1014.44 1014.03 1013.65 1013.29 1012.93 1012.56 1012.15 1011.70 1011.21 1010.69 1010.16 1009.62 1009.10 1008.59 1008.11 1007.66 1007.24 1006.85 1006.51 1006.22 1006.00 1005.88
1021.95 1021.97 1021.96 1021.90 1021.79 1021.61 1021.38 1021.09 1020.74 1020.36 1019.94 1019.48 1018.99 1018.47 1017.92 1017.35 1016.75 1016.15 1015.56 1014.99 1014.47 1013.98 1013.54 1013.15 1012.78 1012.42 1012.07 1011.70 1011.30 1010.88 1010.43 1009.96 1009.48 1008.99 1008.50 1008.01 1007.53 1007.06 1006.60 1006.18 1005.81 1005.52 1005.33
1022.23 1022.23 1022.18 1022.06 1021.88 1021.63 1021.32 1020.96 1020.55 1020.11 1019.65 1019.17 1018.67 1018.15 1017.61 1017.04 1016.46 1015.87 1015.29 1014.72 1014.18 1013.68 1013.23 1012.83 1012.46 1012.12 1011.80 1011.47 1011.13 1010.77 1010.39 1009.98 1009.54 1009.08 1008.60 1008.09 1007.57 1007.03 1006.50 1005.99 1005.53 1005.15 1004.88
Thickness
5731 5729 5726 5724 5722 5720 5717 5715 5714 5712 5709 5707 5706 5704 5701 5699 5697 5696 5694 5691 5689 5687 5685 5683 5681 5679 5676 5674 5671 5668 5666 5664 5663 5661 5660 5660 5659 5658 5658 5657 5657 5657 5657
5729 5726 5722 5720 5718 5717 5714 5711 5709 5707 5705 5703 5700 5698 5695 5692 5690 5687 5685 5684 5682 5680 5678 5676 5674 5671 5669 5666 5663 5660 5658 5656 5654 5652 5651 5650 5649 5648 5648 5648 5647 5648 5648
5725 5721 5717 5714 5713 5712 5709 5705 5703 5700 5698 5695 5692 5690 5687 5684 5680 5678 5676 5674 5673 5671 5670 5668 5666 5664 5661 5658 5655 5651 5649 5646 5644 5642 5641 5639 5638 5638 5637 5637 5637 5637 5638
5721 5716 5711 5707 5705 5704 5701 5698 5694 5690 5687 5684 5682 5681 5679 5676 5673 5670 5667 5665 5663 5661 5660 5658 5656 5654 5651 5648 5644 5642 5639 5636 5634 5632 5630 5628 5627 5626 5626 5626 5626 5626 5627
5714 5710 5704 5700 5697 5694 5691 5689 5684 5680 5676 5674 5672 5671 5668 5666 5664 5661 5659 5656 5653 5650 5648 5646 5644 5641 5638 5635 5632 5630 5627 5625 5623 5620 5618 5616 5615 5614 5613 5613 5613 5613 5614
5706 5701 5695 5690 5687 5684 5680 5677 5673 5669 5665 5662 5662 5660 5657 5654 5652 5649 5646 5643 5640 5637 5634 5631 5628 5625 5622 5619 5617 5615 5613 5612 5610 5608 5606 5604 5603 5601 5600 5599 5599 5600 5601
5696 5690 5685 5680 5677 5672 5668 5666 5661 5657 5652 5651 5648 5645 5644 5641 5639 5635 5632 5629 5625 5621 5618 5614 5611 5608 5605 5602 5600 5599 5598 5597 5596 5594 5592 5591 5589 5587 5586 5585 5585 5586 5587
5685 5680 5674 5669 5665 5660 5656 5653 5649 5644 5639 5636 5633 5629 5625 5624 5622 5621 5617 5613 5609 5605 5601 5597 5594 5591 5588 5586 5584 5583 5582 5582 5581 5579 5578 5576 5575 5573 5572 5571 5571 5572 5573
5675 5669 5663 5658 5653 5648 5643 5640 5637 5632 5625 5621 5619 5615 5609 5606 5603 5604 5601 5597 5593 5589 5584 5581 5578 5574 5572 5570 5568 5566 5566 5565 5564 5564 5562 5561 5560 5559 5558 5558 5557 5558 5559
5664 5658 5652 5647 5641 5637 5632 5628 5624 5619 5614 5608 5605 5602 5597 5593 5588 5585 5584 5581 5577 5573 5568 5565 5562 5559 5556 5553 5551 5549 5548 5548 5547 5546 5546 5546 5546 5545 5545 5545 5545 5546 5547
5653 5647 5641 5636 5630 5625 5620 5616 5612 5608 5603 5597 5592 5588 5583 5578 5573 5568 5565 5563 5561 5557 5553 5549 5546 5542 5539 5537 5534 5532 5531 5530 5530 5529 5529 5530 5531 5532 5532 5533 5534 5534 5536
5642 5637 5631 5625 5620 5614 5609 5605 5600 5596 5591 5586 5580 5575 5569 5564 5558 5552 5547 5545 5543 5542 5539 5534 5530 5526 5523 5520 5517 5514 5513 5512 5511 5511 5511 5512 5514 5517 5519 5520 5522 5523 5525
5631 5626 5620 5614 5608 5603 5598 5593 5588 5583 5578 5573 5568 5562 5557 5551 5546 5540 5534 5531 5528 5527 5524 5520 5514 5510 5506 5502 5499 5496 5495 5493 5493 5492 5493 5494 5496 5499 5502 5505 5508 5511 5514
5621 5615 5609 5603 5597 5592 5586 5581 5576 5571 5566 5561 5555 5550 5544 5539 5533 5528 5523 5518 5516 5514 5509 5505 5499 5493 5488 5484 5481 5478 5476 5474 5474 5474 5475 5476 5478 5481 5485 5489 5493 5496 5500
5610 5604 5598 5592 5586 5580 5574 5569 5562 5557 5552 5547 5541 5536 5530 5526 5521 5515 5510 5504 5500 5502 5502 5492 5483 5478 5472 5467 5463 5460 5458 5456 5456 5456 5457 5459 5462 5465 5469 5473 5477 5482 5486
5597 5590 5584 5578 5572 5566 5560 5554 5548 5542 5537 5531 5526 5521 5516 5512 5507 5501 5496 5491 5484 5481 5484 5478 5468 5461 5455 5451 5447 5444 5442 5441 5441 5441 5442 5445 5448 5451 5455 5459 5464 5469 5473
5582 5575 5569 5563 5557 5551 5545 5538 5531 5526 5520 5515 5510 5506 5501 5497 5491 5486 5482 5476 5470 5463 5464 5465 5452 5446 5440 5435 5433 5430 5429 5429 5430 5431 5433 5435 5438 5442 5445 5449 5454 5458 5462
5566 5559 5554 5547 5540 5533 5527 5521 5515 5509 5504 5499 5494 5490 5486 5482 5477 5472 5467 5461 5456 5449 5444 5445 5440 5431 5427 5423 5422 5421 5421 5421 5422 5423 5425 5428 5431 5435 5438 5442 5445 5449 5453
5549 5543 5537 5529 5522 5515 5509 5503 5498 5493 5488 5483 5479 5475 5471 5467 5463 5459 5453 5448 5443 5438 5431 5428 5427 5422 5419 5417 5416 5416 5416 5416 5416 5418 5421 5423 5426 5429 5432 5435 5438 5441 5445
5531 5525 5519 5512 5505 5498 5492 5488 5483 5478 5473 5469 5466 5462 5459 5455 5451 5447 5442 5437 5432 5427 5422 5418 5418 5416 5414 5414 5412 5412 5413 5412 5413 5415 5418 5420 5423 5425 5428 5431 5434 5436 5439
5513 5507 5501 5494 5488 5483 5478 5473 5468 5464 5459 5456 5453 5450 5447 5445 5442 5437 5433 5429 5424 5420 5417 5415 5415 5414 5413 5412 5410 5410 5410 5411 5413 5414 5416 5418 5420 5422 5424 5427 5429 5432 5434
5495 5490 5484 5478 5473 5469 5464 5459 5455 5450 5447 5443 5441 5438 5436 5434 5431 5427 5425 5422 5420 5417 5416 5415 5415 5414 5413 5412 5411 5410 5410 5411 5414 5415 5414 5417 5418 5419 5422 5423 5426 5428 5430
5478 5473 5468 5463 5458 5454 5450 5445 5442 5438 5434 5431 5429 5427 5426 5424 5421 5419 5418 5418 5417 5416 5416 5415 5415 5415 5413 5413 5411 5411 5411 5411 5412 5414 5413 5417 5418 5419 5421 5423 5424 5425 5427
5463 5458 5453 5448 5444 5440 5437 5432 5429 5426 5423 5421 5420 5418 5417 5416 5416 5414 5414 5415 5416 5417 5417 5416 5415 5415 5414 5413 5411 5411 5411 5412 5413 5414 5413 5415 5417 5418 5421 5422 5423 5424 5425
5448 5444 5439 5435 5431 5427 5424 5420 5418 5414 5412 5412 5412 5412 5412 5411 5411 5410 5411 5413 5415 5416 5417 5417 5417 5416 5415 5414 5412 5412 5412 5411 5413 5414 5413 5412 5415 5416 5419 5421 5422 5423 5424
5434 5430 5426 5422 5419 5415 5412 5410 5408 5405 5404 5405 5407 5408 5408 5408 5408 5409 5409 5411 5413 5415 5416 5418 5418 5418 5416 5415 5413 5411 5410 5410 5411 5413 5411 5410 5412 5413 5417 5419 5421 5421 5422